AirNav   Air Wisconsin pilot careers
 
 1080 users online  

TN93 Gateway Medical Center Heliport
Clarksville, Tennessee, USA


FAA INFORMATION EFFECTIVE 04 JANUARY 2018

Location

FAA Identifier: TN93
Lat/Long: 36-34-50.2800N / 087-16-09.8000W
36-34.838000N / 087-16.163333W
36.5806333 / -87.2693889
(estimated)
Elevation: 516 ft. / 157 m (estimated)
From city: 5 miles NE of CLARKSVILLE, TN
Time zone: UTC -6 (UTC -5 during Daylight Saving Time)
Zip code: 37040

Heliport Operations

Heliport use: Private use. Permission required prior to landing
Activation date: 09/2011
Control tower: no
ARTCC: MEMPHIS CENTER
FSS: JACKSON FLIGHT SERVICE STATION
NOTAMs facility: FDC (NOTAM-D service not available)
Attendance: UNATNDD
Wind indicator: lighted
Segmented circle: no
Lights: SS-SR

Heliport Communications

WX ASOS at CKV (7 nm W): 134.575 (931-431-3045)
WX AWOS-3 at EOD (10 nm W): PHONE 270-956-3100
WX AWOS-3 at M91 (17 nm E): 120.675 (615-384-8206)
WX AWOS-3 at HVC (19 nm NW): 132.575 (270-886-6311)

Nearby radio navigation aids

VOR radial/distance  VOR name  Freq  Var
CKVr111/7.3CLARKSVILLE VOR/DME110.6001W
BNAr315/38.8NASHVILLE VORTAC114.1002W

 
NDB name  Hdg/Dist  Freq  Var  ID
SNUFF061/6.533501WCK -.-. -.-
AIRBE144/11.727301WFK ..-. -.-
DICKSON017/28.320301WDMZ -.. -- --..

Heliport Services

Runway Information

Helipad H1

Dimensions: 40 x 40 ft. / 12 x 12 m
Surface: concrete
Runway edge lights: PERI
PERI & FLD LGTS.
Latitude: 36-34.838000N
Longitude: 087-16.163333W
Elevation: 516.0 ft.
Traffic pattern: leftleft

Heliport Ownership and Management from official FAA records

Ownership: Privately-owned
Owner: GATEWAY MEDICAL CENTER
651 DUNLOP LANE
CLARKSVILLE, TN 37040
Phone 931-502-1000
Manager: MIKE HOLZKAMPER
651 DUNLOP LANE
CLARKSVILLE, TN 37040
Phone 931-502-1900
FAX# 931-502-1905

Instrument Procedures

There are no published instrument procedures at TN93.

Some nearby airports with instrument procedures:

KCKV - Outlaw Field Airport (7 nm W)
KEOD - Sabre Army Airfield (Fort Campbell) (10 nm W)
KHOP - Campbell Army Airfield (Fort Campbell) (12 nm NW)
M91 - Springfield Robertson County Airport (17 nm E)
KHVC - Hopkinsville-Christian County Airport (19 nm NW)
 
Loc | Ops | Rwys | IFR | FBO | Links
Com | Nav | Svcs | Stats | Notes


 
Aerial photo
No photo
 
Airport distance calculator
Flying to Gateway Medical Center Heliport? Find the distance to fly.

From to TN93

Sunrise and sunset
Times for 20-Jan-2018
 Local
(UTC-6)
 Zulu
(UTC)
Morning civil twilight06:3212:32
Sunrise07:0013:00
Sunset17:0123:01
Evening civil twilight17:2923:29

Current date and time
Zulu (UTC)  20-Jan-2018 17:19:29
Local (UTC-6)  20-Jan-2018 11:19:29
 
METAR
KCKV 
7nm W 
201652Z AUTO 22007KT 10SM OVC020 09/M04 A3021 RMK AO2 SLP229 T00891044
KEOD 
10nm W 
201658Z AUTO 33006KT 10SM OVC020 07/M02 A3020 RMK AO2 SLP232 T00711021
KHOP 
12nm NW 
201656Z AUTO 19008KT 10SM OVC019 08/M03 A3018 RMK AO2 SLP224 T00811034
KM91 
17nm E 
201655Z AUTO 21006KT 10SM OVC020 10/M01 A3019 RMK A01
TAF
KCKV 
7nm W 
201121Z 2012/2112 20007KT P6SM SCT040 FM201400 19006KT P6SM BKN250
KHOP 
12nm NW 
201600Z 2016/2122 21009KT 9999 BKN025 510052 QNH3007INS TX10/2021Z TN06/2016Z
NOTAMs
Click for the latest NOTAMs
NOTAMs are issued by the DoD/FAA and will open in a separate window not controlled by AirNav.

 

 
 

Would you like to see your business listed on this page?

 If your business provides an interesting product or service to pilots, flight crews, aircraft, or users of the Gateway Medical Center Heliport, you should consider listing it here.  To start the listing process, click on the button below
 
Add a business
 

Other Pages about Gateway Medical Center Heliport

Update a link
 
Copyright © AirNav, LLC. All rights reserved. Privacy Policy  Contact